• In Netherlands
  • List of Countries
  • For 7 days
  • Water Temperature
  • Satellite Maps
  • Weather Map
  • Weather Widgets
  • user-avatar
    Login

    Hourly Weather Djelfa

    Today, 23 September, Saturday

    Time Temperature Precipitation Wind Pressure Humidity
    00:00 +24°C° 0 mm 3 mps 669 mmHg 35%
    01:00 +22°C° 0.1 mm 3 mps 668 mmHg 36%
    02:00 +22°C° 0.1 mm 3 mps 668 mmHg 37%
    03:00 +21°C° 0.1 mm 3 mps 668 mmHg 38%
    04:00 +21°C° 0 mm 3 mps 668 mmHg 38%
    05:00 +20°C° 0 mm 4 mps 668 mmHg 39%
    06:00 +20°C° 0 mm 3 mps 668 mmHg 39%
    07:00 +21°C° 0 mm 4 mps 669 mmHg 35%
    08:00 +23°C° 0 mm 5 mps 669 mmHg 32%
    09:00 +24°C° 0 mm 6 mps 670 mmHg 28%
    10:00 +26°C° 0 mm 6 mps 670 mmHg 26%
    11:00 +27°C° 0 mm 6 mps 670 mmHg 23%
    12:00 +28°C° 0 mm 6 mps 669 mmHg 21%
    13:00 +29°C° 0 mm 6 mps 669 mmHg 20%
    14:00 +29°C° 0 mm 5 mps 669 mmHg 20%
    15:00 +30°C° 0 mm 5 mps 668 mmHg 19%
    16:00 +29°C° 0 mm 4 mps 668 mmHg 20%
    17:00 +29°C° 0 mm 4 mps 668 mmHg 21%
    18:00 +28°C° 0 mm 4 mps 668 mmHg 23%
    19:00 +27°C° 0.2 mm 3 mps 668 mmHg 26%
    20:00 +26°C° 0.2 mm 3 mps 668 mmHg 29%
    21:00 +25°C° 0.2 mm 3 mps 668 mmHg 32%
    22:00 +24°C° 0.1 mm 3 mps 668 mmHg 35%
    23:00 +24°C° 0.1 mm 3 mps 668 mmHg 38%

    Tomorrow, 24 September, Sunday

    Time Temperature Precipitation Wind Pressure Humidity
    00:00 +22°C° 0.1 mm 3 mps 668 mmHg 40%
    01:00 +21°C° 0 mm 3 mps 668 mmHg 42%
    02:00 +21°C° 0 mm 3 mps 668 mmHg 44%
    03:00 +21°C° 0 mm 2 mps 668 mmHg 46%
    04:00 +20°C° 0 mm 2 mps 667 mmHg 49%
    05:00 +20°C° 0 mm 2 mps 667 mmHg 53%
    06:00 +19°C° 0 mm 2 mps 667 mmHg 56%
    07:00 +20°C° 0 mm 2 mps 668 mmHg 52%
    08:00 +22°C° 0 mm 3 mps 668 mmHg 48%
    09:00 +23°C° 0 mm 4 mps 669 mmHg 44%
    10:00 +25°C° 0 mm 4 mps 669 mmHg 39%
    11:00 +26°C° 0 mm 5 mps 669 mmHg 33%
    12:00 +27°C° 0 mm 5 mps 669 mmHg 28%
    13:00 +28°C° 0 mm 5 mps 669 mmHg 26%
    14:00 +28°C° 0 mm 5 mps 669 mmHg 25%
    15:00 +28°C° 0 mm 5 mps 669 mmHg 23%
    16:00 +27°C° 0 mm 5 mps 668 mmHg 25%
    17:00 +27°C° 0 mm 4 mps 668 mmHg 26%
    18:00 +26°C° 0 mm 4 mps 668 mmHg 27%
    19:00 +25°C° 0 mm 3 mps 669 mmHg 29%
    20:00 +24°C° 0 mm 2 mps 669 mmHg 32%
    21:00 +24°C° 0 mm 2 mps 669 mmHg 34%
    22:00 +23°C° 0 mm 1 mps 669 mmHg 37%
    23:00 +22°C° 0 mm 1 mps 668 mmHg 40%

    Day after tomorrow, 25 September, Monday

    Time Temperature Precipitation Wind Pressure Humidity
    00:00 +21°C° 0 mm 1 mps 668 mmHg 43%
    01:00 +21°C° 0 mm 1 mps 668 mmHg 45%
    02:00 +18°C° 0 mm 0 mps 667 mmHg 47%
    03:00 +17°C° 0 mm 0 mps 667 mmHg 49%
    04:00 +17°C° 0 mm 0 mps 667 mmHg 50%
    05:00 +17°C° 0 mm 0 mps 667 mmHg 50%
    06:00 +17°C° 0 mm 0 mps 667 mmHg 51%
    07:00 +20°C° 0 mm 1 mps 667 mmHg 44%
    08:00 +21°C° 0 mm 2 mps 668 mmHg 38%
    09:00 +24°C° 0 mm 2 mps 669 mmHg 32%
    10:00 +25°C° 0 mm 3 mps 669 mmHg 28%
    11:00 +26°C° 0 mm 3 mps 669 mmHg 24%
    12:00 +27°C° 0 mm 3 mps 669 mmHg 20%
    13:00 +28°C° 0 mm 4 mps 669 mmHg 19%
    14:00 +28°C° 0 mm 4 mps 669 mmHg 18%
    15:00 +28°C° 0 mm 4 mps 668 mmHg 17%
    16:00 +28°C° 0 mm 4 mps 668 mmHg 18%
    17:00 +27°C° 0 mm 4 mps 668 mmHg 19%
    18:00 +26°C° 0 mm 3 mps 668 mmHg 21%
    19:00 +25°C° 0 mm 3 mps 668 mmHg 22%
    20:00 +24°C° 0 mm 2 mps 668 mmHg 23%
    21:00 +23°C° 0 mm 2 mps 668 mmHg 25%
    22:00 +23°C° 0 mm 1 mps 668 mmHg 26%
    23:00 +22°C° 0 mm 1 mps 668 mmHg 27%

    26 September, Tuesday

    Time Temperature Precipitation Wind Pressure Humidity
    00:00 +21°C° 0 mm 1 mps 667 mmHg 29%
    01:00 +18°C° 0 mm 0 mps 667 mmHg 30%
    02:00 +18°C° 0 mm 0 mps 667 mmHg 32%
    03:00 +17°C° 0 mm 0 mps 666 mmHg 33%
    04:00 +17°C° 0 mm 0 mps 666 mmHg 34%
    05:00 +17°C° 0 mm 0 mps 666 mmHg 35%
    06:00 +16°C° 0 mm 0 mps 666 mmHg 36%
    07:00 +18°C° 0 mm 0 mps 667 mmHg 32%
    08:00 +20°C° 0 mm 0 mps 668 mmHg 28%
    09:00 +22°C° 0 mm 0 mps 668 mmHg 24%
    10:00 +25°C° 0 mm 1 mps 668 mmHg 22%
    11:00 +26°C° 0 mm 1 mps 668 mmHg 20%
    12:00 +27°C° 0 mm 1 mps 668 mmHg 18%
    13:00 +28°C° 0 mm 2 mps 668 mmHg 17%
    14:00 +28°C° 0 mm 2 mps 668 mmHg 16%
    15:00 +28°C° 0 mm 2 mps 667 mmHg 14%
    16:00 +28°C° 0 mm 2 mps 667 mmHg 15%
    17:00 +27°C° 0 mm 2 mps 667 mmHg 17%
    18:00 +26°C° 0 mm 2 mps 667 mmHg 18%
    19:00 +26°C° 0 mm 2 mps 667 mmHg 21%
    20:00 +25°C° 0 mm 2 mps 668 mmHg 24%
    21:00 +24°C° 0 mm 2 mps 668 mmHg 27%
    22:00 +22°C° 0 mm 3 mps 668 mmHg 32%
    23:00 +22°C° 0 mm 3 mps 667 mmHg 36%

    27 September, Wednesday

    Time Temperature Precipitation Wind Pressure Humidity
    00:00 +21°C° 0 mm 3 mps 667 mmHg 41%
    01:00 +21°C° 0 mm 3 mps 667 mmHg 43%
    02:00 +20°C° 0 mm 3 mps 667 mmHg 45%
    03:00 +20°C° 0 mm 3 mps 667 mmHg 48%
    04:00 +20°C° 0 mm 3 mps 667 mmHg 48%
    05:00 +19°C° 0 mm 2 mps 667 mmHg 49%
    06:00 +19°C° 0 mm 2 mps 667 mmHg 49%
    07:00 +20°C° 0 mm 3 mps 668 mmHg 44%
    08:00 +22°C° 0 mm 3 mps 669 mmHg 39%
    09:00 +25°C° 0 mm 4 mps 669 mmHg 34%
    10:00 +26°C° 0 mm 4 mps 669 mmHg 30%
    11:00 +27°C° 0 mm 3 mps 669 mmHg 27%
    12:00 +28°C° 0 mm 3 mps 669 mmHg 23%
    13:00 +28°C° 0 mm 3 mps 669 mmHg 21%
    14:00 +29°C° 0 mm 3 mps 669 mmHg 19%
    15:00 +29°C° 0 mm 3 mps 669 mmHg 16%
    16:00 +29°C° 0 mm 3 mps 669 mmHg 17%
    17:00 +28°C° 0 mm 3 mps 669 mmHg 18%
    18:00 +27°C° 0 mm 3 mps 669 mmHg 19%
    19:00 +26°C° 0 mm 3 mps 669 mmHg 21%
    20:00 +25°C° 0 mm 2 mps 669 mmHg 23%
    21:00 +25°C° 0 mm 2 mps 669 mmHg 25%
    22:00 +24°C° 0 mm 2 mps 669 mmHg 29%
    23:00 +23°C° 0 mm 2 mps 669 mmHg 32%

    28 September, Thursday

    Time Temperature Precipitation Wind Pressure Humidity
    00:00 +21°C° 0 mm 2 mps 669 mmHg 36%
    01:00 +21°C° 0 mm 2 mps 669 mmHg 39%
    02:00 +21°C° 0 mm 1 mps 668 mmHg 42%
    03:00 +20°C° 0 mm 1 mps 668 mmHg 45%
    04:00 +20°C° 0 mm 1 mps 668 mmHg 47%
    05:00 +20°C° 0 mm 1 mps 668 mmHg 49%
    06:00 +19°C° 0 mm 1 mps 668 mmHg 51%
    07:00 +20°C° 0 mm 2 mps 669 mmHg 46%
    08:00 +21°C° 0 mm 2 mps 670 mmHg 41%
    09:00 +24°C° 0 mm 3 mps 670 mmHg 37%
    10:00 +25°C° 0 mm 3 mps 670 mmHg 33%
    11:00 +26°C° 0 mm 3 mps 670 mmHg 29%
    12:00 +27°C° 0 mm 3 mps 670 mmHg 25%
    13:00 +28°C° 0 mm 4 mps 670 mmHg 23%
    14:00 +28°C° 0 mm 4 mps 670 mmHg 22%
    15:00 +28°C° 0 mm 4 mps 670 mmHg 20%
    16:00 +27°C° 0 mm 4 mps 670 mmHg 21%
    17:00 +27°C° 0 mm 4 mps 670 mmHg 22%
    18:00 +26°C° 0 mm 4 mps 670 mmHg 23%
    19:00 +25°C° 0 mm 4 mps 670 mmHg 26%
    20:00 +24°C° 0 mm 3 mps 670 mmHg 29%
    21:00 +22°C° 0 mm 3 mps 670 mmHg 32%
    22:00 +21°C° 0 mm 3 mps 670 mmHg 36%
    23:00 +20°C° 0 mm 3 mps 670 mmHg 39%
    Show more